Regional Weather Roundup
Issued by NWS

Home | Current Version | Previous Version | Graphics & Text | Print | Product List | Glossary Off
Versions: 1 2 3 4 5 6 7 8 9 10 11 12 13 14 15 16 17 18 19 20 21 22 23 24 25 26 27 28 29 30 31 32 33 34 35 36 37 38 39 40 41 42 43 44 45 46 47 48 49 50

000
ASUS43 KMKX 021321
RWRWI

WISCONSIN REGIONAL WEATHER ROUNDUP
NATIONAL WEATHER SERVICE MILWAUKEE/SULLIVAN WI
800 AM CDT THU JUL 02 2015

NOTE: "FAIR" INDICATES FEW OR NO CLOUDS BELOW 12,000 FEET WITH NO
SIGNIFICANT WEATHER AND/OR OBSTRUCTIONS TO VISIBILITY.

WIZ001-002-006>008-014>016-023>028-021400-
NORTHWEST WISCONSIN

CITY           SKY/WX    TMP DP  RH WIND       PRES   REMARKS
SUPERIOR ARPT  NOT AVBL
ASHLAND        SUNNY     60  53  77 S5        30.06S
HAYWARD        SUNNY     59  51  75 CALM      30.07F
SIREN          NOT AVBL
CUMBERLAND     NOT AVBL
RICE LAKE      NOT AVBL
CHETEK         NOT AVBL
LADYSMITH      NOT AVBL
EAU CLAIRE     SUNNY     56  52  86 E7        30.04F
MENOMONIE      SUNNY     57  53  88 CALM      30.05
NEW RICHMOND   NOT AVBL
OSCEOLA        NOT AVBL
$$

WIZ003>005-009-010-017-018-021400-
NORTH CENTRAL WISCONSIN

CITY           SKY/WX    TMP DP  RH WIND       PRES   REMARKS
MANITOWISH WTR NOT AVBL
ARBOR VITAE    SUNNY     57  52  84 S8        30.10S
WOODRUFF       SUNNY     57  52  84 S8        30.10S
RHINELANDER    SUNNY     57  48  72 S7        30.11R
EAGLE RIVER    NOT AVBL
LAND O LAKES   NOT AVBL
PHILLIPS       NOT AVBL
TOMAHAWK       NOT AVBL
MEDFORD        NOT AVBL
MERRILL        NOT AVBL
$$

WIZ029-030-035-036-043>047-021400-
CENTRAL WISCONSIN

CITY           SKY/WX    TMP DP  RH WIND       PRES   REMARKS
WAUSAU         SUNNY     57  49  74 CALM      30.09R
MOSINEE        SUNNY     55  52  88 CALM      30.11
MARSHFIELD     SUNNY     57  50  77 SE6       30.08S
STEVENS POINT  NOT AVBL
WAUPACA        NOT AVBL
WAUTOMA        SUNNY     56  53  89 CALM      30.09S
WISC RAPIDS    SUNNY     58  50  75 CALM      30.09S
CAMP DOUGLAS   SUNNY     55  55 100 E2        30.06F
$$

WIZ011>013-019>022-031-037>040-048>050-021400-
NORTHEAST WISCONSIN

CITY           SKY/WX    TMP DP  RH WIND       PRES   REMARKS
ANTIGO         SUNNY     55  50  81 CALM      30.11S
SHAWANO        SUNNY     57  53  85 CALM      30.11
OCONTO         NOT AVBL
STURGEON BAY   SUNNY     57  45  62 NE3       30.10R
GREEN BAY      SUNNY     58  51  78 W5        30.09R
MANITOWOC      SUNNY     55  49  80 MISG      30.09R
APPLETON       SUNNY     55  45  67 N6        30.09R
CLINTONVILLE   NOT AVBL
OSHKOSH        SUNNY     59  45  59 NE7       30.07R
$$

WIZ032>034-041-042-053>061-021400-
SOUTHWEST WISCONSIN

CITY           SKY/WX    TMP DP  RH WIND       PRES   REMARKS
LA CROSSE      SUNNY     55  52  89 E5        30.04F
SPARTA         NOT AVBL
VIROQUA        NOT AVBL
BOSCOBEL       FOG       53  51  93 CALM      30.05S VSB 1/4
PRAIRIE DU CHI NOT AVBL
PLATTEVILLE    NOT AVBL
$$

WIZ056-057-062-063-064-067-068-021400-
SOUTH CENTRAL WISCONSIN

CITY           SKY/WX    TMP DP  RH WIND       PRES   REMARKS
REEDSBURG      SUNNY     55  53  92 NE5       30.06
BARABOO/DELLS  NOT AVBL
LONE ROCK      SUNNY     56  53  90 NE5       30.05S
MINERAL POINT  NOT AVBL
MADISON        SUNNY     56  49  77 NE7       30.05S
MIDDLETON      NOT AVBL
WATERTOWN      NOT AVBL
MONROE         NOT AVBL
JANESVILLE     SUNNY     55  52  88 NE7       30.05R
$$

WIZ051-052-058>065-066-070>072-021400-
SOUTHEAST WISCONSIN

CITY           SKY/WX    TMP DP  RH WIND       PRES   REMARKS
MILWAUKEE      MOSUNNY   56  51  84 N7        30.07R
WAUKESHA       SUNNY     54  48  82 N5        30.07R
MILWAUKEE/TIMM SUNNY     55  48  76 N9        30.07R
RACINE         SUNNY     57  51  80 N8        30.06R
BURLINGTON     NOT AVBL
KENOSHA        MOSUNNY   57  52  83 NE5       30.05R
FOND DU LAC    SUNNY     58  47  66 NE12      30.07R
SHEBOYGAN      SUNNY     56  49  77 N7        30.07R
WEST BEND      NOT AVBL
JUNEAU         NOT AVBL
$$

LSZ147-162-021400-
LAKE SUPERIOR

STATION/POSITION TIME  TEMP    WIND        PRES    WAVE
                       AIR SEA DIR/SP/G            HT/PER
                 (UTC) (F)     (DEG/KT/KT) (MB)    (FT/S)
W MID LAKE BUOY  1250   45 38  210/ 10/ 10 1017.6R   0
DEVILS ISLAND    1200   59     220/  5/  7 1017.3R
SAXON HARBOR     1200   58     190/  6/ 10 1017.3R
$$

LMZ867-665-643>646-021400-
LAKE MICHIGAN

STATION/POSITION TIME  TEMP    WIND        PRES    WAVE
                       AIR SEA DIR/SP/G            HT/PER
                 (UTC) (F)     (DEG/KT/KT) (MB)    (FT/S)
CHAMBERS ISLAND  1240   64     330/  3/  4 1018.3S
S GREEN BAY BUOY 1200   60 68   90/  4/  6 1019.2
N MID LAKE BUOY  1250   46 42  300/  6/  6 1018.4R   0
NORTHPORT PIER   1200   56      CALM  /  2 1018.3R
SISTER BAY       1144   55        CALM       N/A
ALGOMA LAKESHORE 1225           CALM  /  3   N/A
KEWAUNEE LAKESHO 1200   51      CALM  /  3 1016.9F
SHEBOYGAN LAKESH 1200   55      30/ 10/ 11 1017.5F
PORT WASHINGTON  1200   56     360/  6/  7 1017.6
ATWATER BUOY     1300   55      20/ 10/ 12 1019.2R
MILWAUKEE LAKESH 1300   55      20/  9/ 11   N/A
KENOSHA   LAKESH 1300   56      30/ 11/ 14 1017.3R
$$

TC  - TEMPERATURE IN CELSIUS
VSB - VISIBILITY IN STATUTE MILES
WCI - WIND CHILL INDEX
HX  - HEAT INDEX



USA.gov is the U.S. government's official web portal to all federal, state and local government web resources and services.